User: anonymous   Login
Location: Kergrach
(48.3833°N, 4.5167°W)
Time: 07:33:09
(UTC+00:00)
Language:

Cosmos 2237 Rocket - Orbit

View from above orbital plane
View from above orbital plane
View from above satellite
View from above satellite

Ground track
Ground track

The orbit data is extracted from the following two-line orbital elements,

1 22566U 93016B   20156.88499641  .00000120  00000-0  86775-4 0  9993
2 22566  71.0080 312.1317 0012460 282.2578  77.7149 14.14966674404566
Epoch (UTC): 04 June 2020 21:14:23
Eccentricity: 0.0012460
inclination: 71.0080°
perigee height: 833 km
apogee height: 851 km
right ascension of ascending node: 312.1317°
argument of perigee: 282.2578°
revolutions per day: 14.14966674
mean anomaly at epoch: 77.7149°
orbit number at epoch: 40456

The dashed part of the orbit path shows where the satellite is in the earth's shadow,  

DLR